Weather in Karel'skaya Derevnya

Russia / Republic of Karelia     62°00′33″N   34°11′51″E
temp.,
°C
wind,
m/s
gust,
m/s
humid.,
%
clouds,
%
prec.,
mm/h
press.,
hPa
HPBL,
m
6 august, fri
fri600:00+11ne1177100 0.0 101811
03:00+10nne228425 0.0 101831
06:00+13ene3873100 0.0 1018385
09:00+16ene466079 0.0 1018687
12:00+19e474225 0.0 10181560
15:00+21e463227 0.0 10172174
18:00+19ese364510 0.0 10171035
21:00+14ese127734 0.0 101748
7 august, sat
sat700:00+11ne24907 0.0 101884
03:00+13ene498320 0.0 1018462
06:00+14ene597757 0.0 1017781
09:00+17e6106746 0.0 1017895
12:00+20e61056100 0.0 10161314
15:00+20ese6964100 0.0 10161312
18:00+18e51170100 0.0 10151094
21:00+17ese61172100 0.1 1015971
8 august, sun
sun800:00+14e61596100 2.8 1014850
03:00+14e61396100 4.0 1014973
06:00+14e51096100 0.4 1013829
09:00+14e5997100 0.9 1013734
12:00+15e4997100 1.3 1013690
15:00+15e4797100 1.8 1014571
18:00+15ene3698100 0.2 1014431
21:00+14ne2499100 0.3 1015255
9 august, mon
mon900:00+14nne249997 0.1 1015193
03:00+13nne119993 0.1 101666
06:00+13ene119890 0.0 101672
09:00+17e118878 0.0 1016369
12:00+19se2372100 0.0 1016762
15:00+21ese336455 0.0 1016906
18:00+20ese357189 0.0 1016501
21:00+17e288495 0.0 1016217
10 august, tue
tue1000:00+17e2786100 0.1 1015212
03:00+15sw2297100 0.1 101540
06:00+16ssw2796100 0.0 1016224
09:00+19wsw478383 0.1 1017540
12:00+22wsw34606 0.0 10181032
15:00+25sw1445100 0.0 10172167
18:00+22sse356288 0.0 1018505
21:00+17s118287 0.0 101815